Location: Myrnam
(53.6612°N, 111.2289°W)
Time: 23:24:35
(UTC+00:00)

METEOR M2 - Visible Passes

Search period start: 01 December 2023 00:00
Search period end: 11 December 2023 00:00
Orbit: 819 x 826 km, 98.4° (Epoch: 01 December)

Date Brightness Start Highest point End Pass type
(mag) Time Alt. Az. Time Alt. Az. Time Alt. Az.
01 Dec ? 00:53:58 10° S 00:59:04 43° W 01:04:13 10° NNW visible
01 Dec ? 13:04:27 10° NNE 13:09:42 50° E 13:14:55 10° S visible
02 Dec ? 00:33:34 10° S 00:38:53 60° WSW 00:44:15 10° NNW visible
02 Dec ? 02:18:40 10° W 02:20:13 11° W 02:21:45 10° WNW visible
02 Dec ? 12:44:31 10° NNE 12:49:29 36° E 12:54:25 10° SSE visible
02 Dec ? 14:24:40 10° N 14:29:47 45° WNW 14:34:52 10° SW visible
03 Dec ? 00:13:22 10° SSE 00:18:46 83° WSW 00:24:12 10° NNW visible
03 Dec ? 01:56:30 10° WSW 01:59:47 16° W 02:03:04 10° NW visible
03 Dec ? 12:24:43 10° NE 12:29:13 26° E 12:33:40 10° SSE visible
03 Dec ? 14:04:28 10° N 14:09:47 62° WNW 14:15:04 10° SSW visible
03 Dec ? 23:53:20 10° SSE 23:58:41 73° ENE 00:04:05 10° NNW visible
04 Dec ? 01:35:14 10° SW 01:39:25 22° W 01:43:36 10° NW visible
04 Dec ? 12:05:06 10° NE 12:08:52 19° E 12:12:37 10° SE visible
04 Dec ? 13:44:20 10° NNE 13:49:45 85° WNW 13:55:07 10° SSW visible
05 Dec ? 01:14:21 10° SSW 01:19:06 31° W 01:23:52 10° NNW visible
05 Dec ? 11:45:53 10° NE 11:48:28 13° E 11:51:01 10° ESE visible
05 Dec ? 13:24:15 10° NNE 13:29:38 71° ESE 13:34:59 10° S visible
06 Dec ? 00:53:45 10° SSW 00:58:51 43° W 01:04:00 10° NNW visible
06 Dec ? 13:04:13 10° NNE 13:09:28 51° E 13:14:41 10° S visible
07 Dec ? 00:33:21 10° S 00:38:40 60° WSW 00:44:01 10° NNW visible
07 Dec ? 02:18:31 10° W 02:19:59 11° W 02:21:28 10° WNW visible
07 Dec ? 12:44:17 10° NNE 12:49:15 36° E 12:54:11 10° SSE visible
07 Dec ? 14:24:26 10° N 14:29:33 45° WNW 14:34:37 10° SW visible
08 Dec ? 00:13:07 10° SSE 00:18:32 82° WSW 00:23:58 10° NNW visible
08 Dec ? 01:56:19 10° WSW 01:59:33 16° W 02:02:49 10° NW visible
08 Dec ? 12:24:28 10° NE 12:28:58 26° E 12:33:26 10° SSE visible
08 Dec ? 14:04:14 10° N 14:09:33 62° WNW 14:14:49 10° SSW visible
08 Dec ? 23:53:05 10° SSE 23:58:27 73° ENE 00:03:50 10° NNW visible
09 Dec ? 01:35:02 10° SW 01:39:11 22° W 01:43:21 10° NW visible
09 Dec ? 12:04:51 10° NE 12:08:38 19° E 12:12:23 10° SE visible
09 Dec ? 13:44:05 10° NNE 13:49:30 84° WNW 13:54:52 10° SSW visible
10 Dec ? 01:14:08 10° SSW 01:18:52 31° W 01:23:37 10° NNW visible
10 Dec ? 11:45:38 10° NE 11:48:13 13° E 11:50:49 10° ESE visible
10 Dec ? 13:24:00 10° NNE 13:29:23 71° ESE 13:34:44 10° S visible
